Retour au catalogue

STARLINK-37907

ActifCommunicationsVLEO
NORAD 69959·PAYLOAD·🇺🇸 United States

Lancé Jul 9, 2026 depuis Cape Canaveral Space Force Station

Loading…

Prochains Passages (prochaines 24 heures)

TLE

FraisSource: CelesTrak SupGP

Époque: Sep 14, 2026, 21:16 UTC

1 69959C 26157S   26257.88659722  .00001540  00000+0  45508-4 0  2570
2 69959  53.1583   0.2145 0001265  82.9588  57.3861 15.34375348    15

Suivez STARLINK-37907 en temps réel avec AllMySat

Download on the App Store